Terminal Aerodrome Forecast
Issued by NWS

Home | Current Version | Previous Version | Text Only | Print | Product List | Glossary On
Versions: 1 2 3 4 5 6 7 8 9 10 11 12 13 14 15 16 17 18 19 20 21 22 23 24 25 26 27 28 29 30 31
000
FTUS43 KDVN 290335 AAB
TAFCID
TAF AMD
KCID 290335Z 2904/2924 25008KT 6SM -RA BR VCTS BKN060CB BKN150
     FM290600 30008KT P6SM BKN060 BKN150
     FM290900 32009KT P6SM SCT060 SCT250
     FM291700 31013G17KT P6SM SCT060=

USA.gov is the U.S. government's official web portal to all federal, state and local government web resources and services.